| time (UTC) | temp C | wind direction | speed KPH | gust KPH | rain 1hr cm | rain 24hr cm | rain mn cm | humidity % | barometer mb |
| 20260507005458 | 20 | 5 | 9.7 | 25.7 | 0.00 | 0.03 | 0.03 | 30 | 1010.3 |
| 20260507004959 | 20 | 8 | 9.7 | 19.3 | 0.00 | 0.03 | 0.03 | 33 | 1010.2 |
| 20260507004458 | 20 | 6 | 8.0 | 24.1 | 0.00 | 0.03 | 0.03 | 33 | 1010.3 |
| 20260507003959 | 20 | 354 | 8.0 | 24.1 | 0.00 | 0.03 | 0.03 | 38 | 1010.2 |
| 20260507003458 | 20 | 128 | 6.4 | 20.9 | 0.00 | 0.03 | 0.03 | 40 | 1010.3 |
| 20260507002958 | 20 | 357 | 4.8 | 22.5 | 0.00 | 0.03 | 0.03 | 40 | 1010.3 |
| 20260507002458 | 20 | 20 | 8.0 | 22.5 | 0.00 | 0.03 | 0.03 | 43 | 1010.2 |
| 20260507001958 | 20 | 359 | 8.0 | 22.5 | 0.00 | 0.03 | 0.03 | 46 | 1010.0 |
| 20260507001501 | 21 | 3 | 8.0 | 20.9 | 0.00 | 0.03 | 0.03 | 48 | 1010.0 |
| 20260507000459 | 21 | 3 | 4.8 | 19.3 | 0.00 | 0.03 | 0.03 | 54 | 1009.6 |
| 20260506235958 | 21 | 2 | 12.9 | 19.3 | 0.00 | 0.03 | 0.03 | 58 | 1009.7 |
| 20260506235458 | 22 | 353 | 4.8 | 19.3 | 0.03 | 0.03 | 0.03 | 58 | 1009.4 |
| 20260506234959 | 22 | 21 | 4.8 | 14.5 | 0.03 | 0.03 | 0.03 | 58 | 1009.5 |
| 20260506233959 | 22 | 0 | 6.4 | 19.3 | 0.03 | 0.03 | 0.03 | 61 | 1009.5 |
| 20260506233459 | 23 | 33 | 8.0 | 19.3 | 0.03 | 0.03 | 0.03 | 61 | 1009.3 |
| 20260506232958 | 23 | 40 | 4.8 | 19.3 | 0.03 | 0.03 | 0.03 | 60 | 1009.3 |
| 20260506231959 | 23 | 353 | 9.7 | 25.7 | 0.03 | 0.03 | 0.03 | 64 | 1009.1 |
| 20260506231458 | 23 | 21 | 8.0 | 20.9 | 0.03 | 0.03 | 0.03 | 64 | 1009.2 |
| 20260506230959 | 24 | 27 | 9.7 | 20.9 | 0.03 | 0.03 | 0.03 | 64 | 1009.0 |
| 20260506230458 | 24 | 4 | 3.2 | 25.7 | 0.03 | 0.03 | 0.03 | 61 | 1009.0 |
| 20260506230000 | 24 | 353 | 9.7 | 25.7 | 0.03 | 0.03 | 0.03 | 64 | 1009.0 |
| 20260506225458 | 25 | 8 | 4.8 | 20.9 | 0.00 | 0.00 | 0.00 | 62 | 1008.9 |
| 20260506224459 | 25 | 65 | 6.4 | 14.5 | 0.00 | 0.00 | 0.00 | 64 | 1008.6 |
| 20260506224002 | 25 | 9 | 3.2 | 24.1 | 0.00 | 0.00 | 0.00 | 62 | 1008.5 |
| 20260506223458 | 26 | 17 | 8.0 | 24.1 | 0.00 | 0.00 | 0.00 | 63 | 1008.4 |
| 20260506222959 | 26 | 54 | 8.0 | 22.5 | 0.00 | 0.00 | 0.00 | 63 | 1008.2 |
| 20260506222500 | 26 | 72 | 4.8 | 22.5 | 0.00 | 0.00 | 0.00 | 62 | 1008.2 |
| 20260506221959 | 26 | 23 | 9.7 | 22.5 | 0.00 | 0.00 | 0.00 | 63 | 1008.1 |
| 20260506221459 | 26 | 27 | 6.4 | 20.9 | 0.00 | 0.00 | 0.00 | 60 | 1008.3 |
| 20260506220959 | 26 | 10 | 8.0 | 19.3 | 0.00 | 0.00 | 0.00 | 61 | 1008.3 |
| 20260506220502 | 27 | 2 | 3.2 | 19.3 | 0.00 | 0.00 | 0.00 | 57 | 1008.2 |
| 20260506215959 | 27 | 43 | 4.8 | 16.1 | 0.00 | 0.00 | 0.00 | 56 | 1008.2 |
| 20260506215458 | 27 | 68 | 8.0 | 19.3 | 0.00 | 0.00 | 0.00 | 55 | 1008.2 |
| 20260506215001 | 27 | 54 | 8.0 | 19.3 | 0.00 | 0.00 | 0.00 | 53 | 1008.3 |
| 20260506214459 | 27 | 21 | 8.0 | 19.3 | 0.00 | 0.00 | 0.00 | 55 | 1008.3 |
| 20260506213959 | 27 | 359 | 4.8 | 16.1 | 0.00 | 0.00 | 0.00 | 55 | 1008.3 |
| 20260506213459 | 27 | 15 | 4.8 | 14.5 | 0.00 | 0.00 | 0.00 | 56 | 1008.1 |
| 20260506212500 | 27 | 29 | 3.2 | 14.5 | 0.00 | 0.00 | 0.00 | 55 | 1008.0 |
| 20260506211958 | 28 | 36 | 4.8 | 14.5 | 0.00 | 0.00 | 0.00 | 60 | 1008.0 |
| 20260506211459 | 28 | 62 | 4.8 | 12.9 | 0.00 | 0.00 | 0.00 | 57 | 1008.0 |
| 20260506210958 | 28 | 69 | 4.8 | 16.1 | 0.00 | 0.00 | 0.00 | 56 | 1008.0 |
| 20260506210459 | 29 | 87 | 4.8 | 16.1 | 0.00 | 0.00 | 0.00 | 59 | 1008.0 |
| 20260506205458 | 29 | 142 | 4.8 | 16.1 | 0.00 | 0.00 | 0.00 | 57 | 1008.0 |
| 20260506205001 | 29 | 122 | 3.2 | 16.1 | 0.00 | 0.00 | 0.00 | 56 | 1008.1 |
| 20260506204458 | 29 | 115 | 6.4 | 14.5 | 0.00 | 0.00 | 0.00 | 59 | 1008.2 |
| 20260506204002 | 29 | 72 | 6.4 | 14.5 | 0.00 | 0.00 | 0.00 | 63 | 1008.3 |
| 20260506203458 | 30 | 84 | 8.0 | 14.5 | 0.00 | 0.00 | 0.00 | 66 | 1008.3 |
| 20260506202959 | 30 | 95 | 3.2 | 11.3 | 0.00 | 0.00 | 0.00 | 67 | 1008.4 |
| 20260506202458 | 30 | 78 | 1.6 | 4.8 | 0.00 | 0.00 | 0.00 | 67 | 1008.5 |
| 20260506201500 | 30 | 334 | 1.6 | 9.7 | 0.00 | 0.00 | 0.00 | 67 | 1008.5 |
| 20260506200958 | 30 | 178 | 3.2 | 9.7 | 0.00 | 0.00 | 0.00 | 67 | 1008.5 |
| 20260506200459 | 30 | 134 | 1.6 | 12.9 | 0.00 | 0.00 | 0.00 | 66 | 1008.4 |
| 20260506195958 | 30 | 18 | 3.2 | 12.9 | 0.00 | 0.00 | 0.00 | 66 | 1008.4 |
| 20260506195459 | 30 | 129 | 6.4 | 11.3 | 0.00 | 0.00 | 0.00 | 65 | 1008.5 |
| 20260506194959 | 29 | 144 | 4.8 | 12.9 | 0.00 | 0.00 | 0.00 | 64 | 1008.5 |
| 20260506194459 | 29 | 130 | 3.2 | 12.9 | 0.00 | 0.00 | 0.00 | 60 | 1008.5 |
| 20260506193958 | 29 | 158 | 3.2 | 9.7 | 0.00 | 0.00 | 0.00 | 59 | 1008.6 |
| 20260506193459 | 29 | 127 | 3.2 | 9.7 | 0.00 | 0.00 | 0.00 | 59 | 1008.5 |
| 20260506192958 | 29 | 163 | 1.6 | 12.9 | 0.00 | 0.00 | 0.00 | 53 | 1008.6 |
| 20260506192500 | 29 | 154 | 4.8 | 12.9 | 0.00 | 0.00 | 0.00 | 57 | 1008.8 |
| 20260506191959 | 29 | 154 | 3.2 | 9.7 | 0.00 | 0.00 | 0.00 | 57 | 1008.7 |
| 20260506191458 | 29 | 199 | 1.6 | 9.7 | 0.00 | 0.00 | 0.00 | 54 | 1008.8 |
| 20260506190959 | 28 | 196 | 3.2 | 12.9 | 0.00 | 0.00 | 0.00 | 58 | 1008.9 |
| 20260506190501 | 28 | 158 | 3.2 | 12.9 | 0.00 | 0.00 | 0.00 | 55 | 1009.0 |
| 20260506185958 | 28 | 131 | 1.6 | 12.9 | 0.00 | 0.00 | 0.00 | 49 | 1008.9 |
| 20260506185458 | 28 | 140 | 3.2 | 12.9 | 0.00 | 0.00 | 0.00 | 35 | 1008.8 |
| 20260506185000 | 28 | 173 | 3.2 | 12.9 | 0.00 | 0.00 | 0.00 | 43 | 1009.1 |
| 20260506184459 | 28 | 165 | 4.8 | 12.9 | 0.00 | 0.00 | 0.00 | 32 | 1009.1 |
| 20260506183958 | 28 | 158 | 3.2 | 9.7 | 0.00 | 0.00 | 0.00 | 25 | 1009.1 |
| 20260506183002 | 27 | 119 | 6.4 | 11.3 | 0.00 | 0.00 | 0.00 | 19 | 1009.1 |
| 20260506182458 | 27 | 129 | 1.6 | 9.7 | 0.00 | 0.00 | 0.00 | 17 | 1009.2 |
| 20260506181959 | 27 | 112 | 0.0 | 9.7 | 0.00 | 0.00 | 0.00 | 17 | 1009.4 |
| 20260506181500 | 27 | 90 | 1.6 | 9.7 | 0.00 | 0.00 | 0.00 | 17 | 1009.4 |
| 20260506180959 | 27 | 105 | 3.2 | 8.0 | 0.00 | 0.00 | 0.00 | 22 | 1009.3 |
| 20260506180858 | 27 | 125 | 3.2 | 8.0 | 0.00 | 0.00 | 0.00 | 18 | 1009.3 |
| 20260506180501 | 27 | 112 | 1.6 | 8.0 | 0.00 | 0.00 | 0.00 | 17 | 1009.5 |
| 20260506174959 | 27 | 117 | 3.2 | 8.0 | 0.00 | 0.00 | 0.00 | 17 | 1009.6 |
| 20260506174459 | 27 | 138 | 1.6 | 4.8 | 0.00 | 0.00 | 0.00 | 17 | 1009.6 |
| 20260506172959 | 27 | 37 | 0.0 | 11.3 | 0.00 | 0.00 | 0.00 | 17 | 1009.8 |
| 20260506172458 | 27 | 95 | 0.0 | 11.3 | 0.00 | 0.00 | 0.00 | 17 | 1009.8 |
| 20260506171959 | 27 | 40 | 3.2 | 8.0 | 0.00 | 0.00 | 0.00 | 17 | 1009.8 |
| 20260506171458 | 26 | 145 | 1.6 | 14.5 | 0.00 | 0.00 | 0.00 | 17 | 1009.9 |
| 20260506170959 | 26 | 90 | 0.0 | 14.5 | 0.00 | 0.00 | 0.00 | 17 | 1009.9 |
| 20260506170500 | 26 | 104 | 3.2 | 14.5 | 0.00 | 0.00 | 0.00 | 17 | 1009.9 |
| 20260506165958 | 26 | 351 | 1.6 | 14.5 | 0.00 | 0.00 | 0.00 | 17 | 1009.9 |
| 20260506165000 | 26 | 72 | 4.8 | 14.5 | 0.00 | 0.00 | 0.00 | 17 | 1009.9 |
| 20260506164459 | 26 | 108 | 3.2 | 14.5 | 0.00 | 0.00 | 0.00 | 17 | 1009.9 |
| 20260506163959 | 26 | 82 | 4.8 | 11.3 | 0.00 | 0.00 | 0.00 | 17 | 1009.9 |
| 20260506163001 | 25 | 146 | 3.2 | 12.9 | 0.00 | 0.00 | 0.00 | 17 | 1010.0 |
| 20260506162459 | 25 | 68 | 3.2 | 12.9 | 0.00 | 0.00 | 0.00 | 17 | 1009.9 |
| 20260506161959 | 25 | 87 | 3.2 | 12.9 | 0.00 | 0.00 | 0.00 | 17 | 1010.0 |
| 20260506160501 | 25 | 156 | 0.0 | 4.8 | 0.00 | 0.00 | 0.00 | 17 | 1009.8 |
| 20260506155958 | 25 | 157 | 1.6 | 4.8 | 0.00 | 0.00 | 0.00 | 17 | 1009.8 |
| 20260506155459 | 25 | 171 | 0.0 | 0.0 | 0.00 | 0.00 | 0.00 | 17 | 1009.7 |
| 20260506154502 | 25 | 173 | 0.0 | 0.0 | 0.00 | 0.00 | 0.00 | 17 | 1009.4 |
| 20260506153959 | 25 | 173 | 0.0 | 0.0 | 0.00 | 0.00 | 0.00 | 17 | 1009.3 |
| 20260506153001 | 25 | 173 | 0.0 | 0.0 | 0.00 | 0.00 | 0.00 | 17 | 1009.2 |
| 20260506152459 | 25 | 173 | 0.0 | 3.2 | 0.00 | 0.00 | 0.00 | 17 | 1009.1 |
| 20260506151959 | 24 | 173 | 0.0 | 3.2 | 0.00 | 0.00 | 0.00 | 17 | 1009.1 |
| 20260506151459 | 24 | 173 | 0.0 | 0.0 | 0.00 | 0.00 | 0.00 | 17 | 1009.0 |
| 20260506151002 | 24 | 173 | 0.0 | 0.0 | 0.00 | 0.00 | 0.00 | 17 | 1009.0 |
| 20260506145959 | 24 | 173 | 0.0 | 0.0 | 0.00 | 0.00 | 0.00 | 17 | 1009.0 |
| 20260506144959 | 24 | 173 | 0.0 | 3.2 | 0.00 | 0.00 | 0.00 | 17 | 1008.9 |
| 20260506144501 | 24 | 173 | 0.0 | 0.0 | 0.00 | 0.00 | 0.00 | 17 | 1008.9 |
| 20260506143959 | 24 | 174 | 0.0 | 1.6 | 0.00 | 0.00 | 0.00 | 17 | 1008.9 |
| 20260506143459 | 24 | 174 | 0.0 | 1.6 | 0.00 | 0.00 | 0.00 | 17 | 1008.6 |
| 20260506142959 | 24 | 174 | 0.0 | 4.8 | 0.00 | 0.00 | 0.00 | 17 | 1008.6 |
| 20260506141459 | 24 | 177 | 1.6 | 4.8 | 0.00 | 0.00 | 0.00 | 17 | 1008.3 |
| 20260506141002 | 24 | 180 | 0.0 | 4.8 | 0.00 | 0.00 | 0.00 | 17 | 1008.3 |
| 20260506140459 | 24 | 182 | 0.0 | 8.0 | 0.00 | 0.00 | 0.00 | 17 | 1008.2 |
| 20260506135959 | 23 | 188 | 3.2 | 8.0 | 0.00 | 0.00 | 0.00 | 17 | 1007.9 |
| 20260506135501 | 23 | 179 | 1.6 | 8.0 | 0.00 | 0.00 | 0.00 | 17 | 1007.9 |
| 20260506134959 | 23 | 182 | 0.0 | 4.8 | 0.00 | 0.00 | 0.00 | 17 | 1007.9 |
| 20260506134459 | 23 | 168 | 1.6 | 14.5 | 0.00 | 0.00 | 0.00 | 17 | 1007.9 |
| 20260506133959 | 23 | 200 | 3.2 | 14.5 | 0.00 | 0.00 | 0.00 | 17 | 1007.8 |
| 20260506133459 | 23 | 164 | 4.8 | 14.5 | 0.00 | 0.00 | 0.00 | 17 | 1007.7 |
| 20260506132959 | 23 | 155 | 1.6 | 9.7 | 0.00 | 0.00 | 0.00 | 17 | 1007.7 |
| 20260506132459 | 23 | 175 | 0.0 | 9.7 | 0.00 | 0.00 | 0.00 | 17 | 1007.7 |
| 20260506131959 | 23 | 169 | 1.6 | 11.3 | 0.00 | 0.00 | 0.00 | 17 | 1007.7 |
| 20260506131459 | 23 | 165 | 3.2 | 11.3 | 0.00 | 0.00 | 0.00 | 17 | 1007.7 |
| 20260506130959 | 23 | 163 | 3.2 | 8.0 | 0.00 | 0.00 | 0.00 | 17 | 1007.6 |
| 20260506130459 | 23 | 150 | 3.2 | 9.7 | 0.00 | 0.00 | 0.00 | 17 | 1007.5 |
| 20260506125959 | 23 | 205 | 1.6 | 9.7 | 0.00 | 0.00 | 0.00 | 17 | 1007.5 |
| 20260506125459 | 23 | 153 | 0.0 | 4.8 | 0.00 | 0.00 | 0.00 | 17 | 1007.6 |
| 20260506124959 | 23 | 150 | 1.6 | 8.0 | 0.00 | 0.00 | 0.00 | 17 | 1007.6 |
| 20260506124501 | 23 | 161 | 3.2 | 8.0 | 0.00 | 0.00 | 0.00 | 17 | 1007.6 |
| 20260506123959 | 23 | 150 | 3.2 | 8.0 | 0.00 | 0.00 | 0.00 | 17 | 1007.7 |
| 20260506123501 | 23 | 190 | 0.0 | 4.8 | 0.00 | 0.00 | 0.00 | 17 | 1007.7 |
| 20260506123000 | 23 | 191 | 0.0 | 4.8 | 0.00 | 0.00 | 0.00 | 17 | 1007.6 |
| 20260506122459 | 23 | 181 | 1.6 | 4.8 | 0.00 | 0.00 | 0.00 | 17 | 1007.6 |
| 20260506122000 | 23 | 182 | 0.0 | 4.8 | 0.00 | 0.00 | 0.00 | 17 | 1007.5 |
| 20260506121459 | 23 | 182 | 1.6 | 4.8 | 0.00 | 0.00 | 0.00 | 17 | 1007.4 |
| 20260506120959 | 23 | 178 | 0.0 | 4.8 | 0.00 | 0.00 | 0.00 | 17 | 1007.4 |
| 20260506120500 | 23 | 191 | 0.0 | 8.0 | 0.00 | 0.00 | 0.00 | 17 | 1007.5 |
| 20260506115958 | 23 | 174 | 0.0 | 8.0 | 0.00 | 0.00 | 0.00 | 17 | 1007.5 |
| 20260506115501 | 23 | 168 | 1.6 | 8.0 | 0.00 | 0.00 | 0.00 | 17 | 1007.3 |
| 20260506114500 | 23 | 173 | 1.6 | 4.8 | 0.00 | 0.00 | 0.00 | 17 | 1007.3 |
| 20260506113959 | 23 | 159 | 0.0 | 0.0 | 0.00 | 0.00 | 0.00 | 17 | 1007.4 |
| 20260506113000 | 24 | 181 | 0.0 | 0.0 | 0.00 | 0.00 | 0.00 | 17 | 1007.3 |
| 20260506112459 | 24 | 184 | 0.0 | 0.0 | 0.00 | 0.00 | 0.00 | 17 | 1007.3 |
| 20260506112000 | 24 | 184 | 0.0 | 0.0 | 0.00 | 0.00 | 0.00 | 17 | 1007.4 |
| 20260506111459 | 24 | 184 | 0.0 | 0.0 | 0.00 | 0.00 | 0.00 | 17 | 1007.4 |
| 20260506110459 | 24 | 184 | 0.0 | 0.0 | 0.00 | 0.00 | 0.00 | 17 | 1007.2 |
| 20260506105958 | 24 | 184 | 0.0 | 0.0 | 0.00 | 0.00 | 0.00 | 17 | 1007.2 |
| 20260506105459 | 24 | 184 | 0.0 | 0.0 | 0.00 | 0.00 | 0.00 | 17 | 1007.2 |
| 20260506105002 | 24 | 184 | 0.0 | 0.0 | 0.00 | 0.00 | 0.00 | 17 | 1007.1 |
| 20260506104459 | 24 | 184 | 0.0 | 0.0 | 0.00 | 0.00 | 0.00 | 17 | 1007.2 |
| 20260506103959 | 24 | 184 | 0.0 | 0.0 | 0.00 | 0.00 | 0.00 | 17 | 1007.2 |
| 20260506102959 | 24 | 184 | 0.0 | 0.0 | 0.00 | 0.00 | 0.00 | 17 | 1007.1 |
| 20260506102459 | 24 | 184 | 0.0 | 0.0 | 0.00 | 0.00 | 0.00 | 17 | 1007.1 |
| 20260506102001 | 24 | 184 | 0.0 | 0.0 | 0.00 | 0.00 | 0.00 | 17 | 1007.0 |
| 20260506101459 | 24 | 182 | 0.0 | 0.0 | 0.00 | 0.00 | 0.00 | 17 | 1007.1 |
| 20260506101000 | 24 | 182 | 0.0 | 0.0 | 0.00 | 0.00 | 0.00 | 17 | 1007.1 |
| 20260506100459 | 24 | 192 | 0.0 | 0.0 | 0.00 | 0.00 | 0.00 | 17 | 1007.0 |
| 20260506095959 | 24 | 205 | 0.0 | 0.0 | 0.00 | 0.00 | 0.00 | 17 | 1006.9 |
| 20260506095459 | 24 | 204 | 0.0 | 4.8 | 0.00 | 0.00 | 0.00 | 17 | 1006.9 |
| 20260506094959 | 24 | 219 | 1.6 | 4.8 | 0.00 | 0.00 | 0.00 | 17 | 1006.9 |
| 20260506094501 | 24 | 204 | 1.6 | 4.8 | 0.00 | 0.00 | 0.00 | 17 | 1006.9 |
| 20260506093959 | 24 | 176 | 0.0 | 9.7 | 0.00 | 0.00 | 0.00 | 17 | 1006.8 |
| 20260506093500 | 24 | 188 | 1.6 | 9.7 | 0.00 | 0.00 | 0.00 | 17 | 1006.8 |
| 20260506093000 | 24 | 196 | 1.6 | 9.7 | 0.00 | 0.00 | 0.00 | 17 | 1006.9 |
| 20260506092459 | 24 | 189 | 1.6 | 8.0 | 0.00 | 0.00 | 0.00 | 17 | 1006.9 |
| 20260506091959 | 24 | 189 | 3.2 | 8.0 | 0.00 | 0.00 | 0.00 | 17 | 1006.9 |
| 20260506091503 | 24 | 189 | 3.2 | 8.0 | 0.00 | 0.00 | 0.00 | 17 | 1006.9 |
| 20260506091001 | 24 | 187 | 3.2 | 8.0 | 0.00 | 0.00 | 0.00 | 17 | 1006.9 |
| 20260506090459 | 24 | 201 | 3.2 | 8.0 | 0.00 | 0.00 | 0.00 | 17 | 1007.0 |
| 20260506085459 | 24 | 178 | 1.6 | 8.0 | 0.00 | 0.00 | 0.00 | 17 | 1007.0 |
| 20260506084959 | 24 | 213 | 3.2 | 8.0 | 0.00 | 0.00 | 0.00 | 17 | 1007.1 |
| 20260506084000 | 24 | 212 | 3.2 | 9.7 | 0.00 | 0.00 | 0.00 | 17 | 1007.0 |
| 20260506083459 | 24 | 192 | 1.6 | 9.7 | 0.00 | 0.00 | 0.00 | 17 | 1007.0 |
| 20260506083000 | 24 | 221 | 3.2 | 9.7 | 0.00 | 0.00 | 0.00 | 17 | 1007.0 |
| 20260506082501 | 24 | 165 | 3.2 | 14.5 | 0.00 | 0.00 | 0.00 | 17 | 1006.9 |
| 20260506082000 | 25 | 215 | 4.8 | 16.1 | 0.00 | 0.00 | 0.00 | 17 | 1006.9 |
| 20260506081502 | 24 | 209 | 3.2 | 16.1 | 0.00 | 0.00 | 0.00 | 17 | 1007.0 |
| 20260506080459 | 25 | 207 | 3.2 | 11.3 | 0.00 | 0.00 | 0.00 | 17 | 1007.1 |
| 20260506072959 | 25 | 174 | 1.6 | 11.3 | 0.00 | 0.00 | 0.00 | 17 | 1007.5 |
| 20260506072459 | 25 | 172 | 4.8 | 11.3 | 0.00 | 0.00 | 0.00 | 17 | 1007.4 |
| 20260506072000 | 25 | 215 | 3.2 | 11.3 | 0.00 | 0.00 | 0.00 | 17 | 1007.4 |
| 20260506071459 | 25 | 179 | 3.2 | 9.7 | 0.00 | 0.00 | 0.00 | 17 | 1007.4 |
| 20260506071000 | 25 | 196 | 4.8 | 11.3 | 0.00 | 0.00 | 0.00 | 17 | 1007.5 |
| 20260506062501 | 25 | 194 | 9.7 | 19.3 | 0.00 | 0.00 | 0.00 | 17 | 1007.5 |
| 20260506062000 | 25 | 180 | 9.7 | 19.3 | 0.00 | 0.00 | 0.00 | 17 | 1007.5 |
| 20260506061459 | 25 | 169 | 8.0 | 16.1 | 0.00 | 0.00 | 0.00 | 17 | 1007.6 |
| 20260506061000 | 25 | 173 | 6.4 | 16.1 | 0.00 | 0.00 | 0.00 | 17 | 1007.6 |
| 20260506051000 | 25 | 173 | 6.4 | 19.3 | 0.00 | 0.00 | 0.00 | 17 | 1007.4 |
| 20260506044959 | 25 | 177 | 4.8 | 16.1 | 0.00 | 0.00 | 0.00 | 17 | 1007.5 |
| 20260506044500 | 25 | 158 | 4.8 | 11.3 | 0.00 | 0.00 | 0.00 | 17 | 1007.6 |
| 20260506044000 | 25 | 147 | 3.2 | 12.9 | 0.00 | 0.00 | 0.00 | 17 | 1007.5 |
| 20260506043459 | 25 | 204 | 3.2 | 12.9 | 0.00 | 0.00 | 0.00 | 17 | 1007.5 |
| 20260506042501 | 25 | 177 | 8.0 | 16.1 | 0.00 | 0.00 | 0.00 | 17 | 1007.5 |
| 20260506041959 | 25 | 169 | 8.0 | 16.1 | 0.00 | 0.00 | 0.00 | 17 | 1007.5 |
| 20260506041000 | 25 | 172 | 6.4 | 14.5 | 0.00 | 0.00 | 0.00 | 17 | 1007.3 |
| 20260506040502 | 25 | 169 | 4.8 | 14.5 | 0.00 | 0.00 | 0.00 | 17 | 1007.2 |
| 20260506035500 | 25 | 174 | 4.8 | 12.9 | 0.00 | 0.00 | 0.00 | 17 | 1007.2 |
| 20260506035001 | 25 | 171 | 1.6 | 11.3 | 0.00 | 0.00 | 0.00 | 17 | 1007.1 |
| 20260506034500 | 25 | 175 | 3.2 | 11.3 | 0.00 | 0.00 | 0.00 | 17 | 1006.9 |
| 20260506033959 | 25 | 164 | 4.8 | 14.5 | 0.00 | 0.00 | 0.00 | 17 | 1006.7 |
| 20260506033500 | 25 | 176 | 6.4 | 14.5 | 0.00 | 0.03 | 0.00 | 17 | 1006.7 |
| 20260506033000 | 25 | 164 | 4.8 | 14.5 | 0.00 | 0.03 | 0.00 | 17 | 1006.6 |
| 20260506032459 | 25 | 170 | 8.0 | 19.3 | 0.00 | 0.03 | 0.00 | 17 | 1006.7 |
| 20260506032000 | 26 | 159 | 4.8 | 19.3 | 0.00 | 0.03 | 0.00 | 17 | 1006.7 |
| 20260506031500 | 26 | 188 | 4.8 | 19.3 | 0.00 | 0.03 | 0.00 | 17 | 1006.6 |
| 20260506030959 | 26 | 182 | 4.8 | 19.3 | 0.00 | 0.03 | 0.00 | 17 | 1006.5 |
| 20260506030500 | 26 | 167 | 9.7 | 19.3 | 0.00 | 0.03 | 0.00 | 17 | 1006.4 |
| 20260506025959 | 26 | 185 | 8.0 | 19.3 | 0.00 | 0.03 | 0.00 | 17 | 1006.2 |
| 20260506025500 | 26 | 165 | 4.8 | 19.3 | 0.00 | 0.03 | 0.00 | 17 | 1006.2 |
| 20260506025000 | 26 | 191 | 8.0 | 19.3 | 0.00 | 0.03 | 0.00 | 17 | 1006.1 |
| 20260506024459 | 26 | 169 | 8.0 | 19.3 | 0.00 | 0.03 | 0.00 | 17 | 1006.1 |
| 20260506024002 | 26 | 173 | 8.0 | 19.3 | 0.00 | 0.03 | 0.00 | 17 | 1006.1 |
| 20260506023500 | 26 | 166 | 8.0 | 19.3 | 0.00 | 0.03 | 0.00 | 17 | 1006.1 |
| 20260506022959 | 26 | 176 | 6.4 | 14.5 | 0.00 | 0.03 | 0.00 | 17 | 1006.0 |
| 20260506022500 | 27 | 165 | 6.4 | 22.5 | 0.00 | 0.03 | 0.00 | 17 | 1006.0 |
| 20260506022003 | 27 | 169 | 8.0 | 22.5 | 0.00 | 0.03 | 0.00 | 17 | 1005.9 |
| 20260506021459 | 27 | 160 | 6.4 | 16.1 | 0.00 | 0.03 | 0.00 | 17 | 1005.9 |
| 20260506021000 | 27 | 165 | 8.0 | 16.1 | 0.00 | 0.03 | 0.00 | 17 | 1005.7 |
| 20260506015959 | 27 | 184 | 8.0 | 20.9 | 0.00 | 0.03 | 0.00 | 17 | 1005.5 |
| 20260506015000 | 27 | 161 | 8.0 | 27.4 | 0.00 | 0.03 | 0.00 | 17 | 1005.4 |
| 20260506014459 | 27 | 150 | 8.0 | 19.3 | 0.00 | 0.03 | 0.00 | 17 | 1005.4 |
| 20260506014000 | 28 | 161 | 8.0 | 19.3 | 0.00 | 0.03 | 0.00 | 18 | 1005.4 |
| 20260506013500 | 28 | 170 | 4.8 | 12.9 | 0.00 | 0.03 | 0.00 | 24 | 1005.2 |
| 20260506013002 | 28 | 165 | 4.8 | 16.1 | 0.00 | 0.03 | 0.00 | 29 | 1005.1 |
| 20260506012459 | 28 | 160 | 4.8 | 16.1 | 0.00 | 0.03 | 0.00 | 35 | 1005.1 |
| 20260506012000 | 28 | 138 | 4.8 | 14.5 | 0.00 | 0.03 | 0.00 | 41 | 1005.1 |
| 20260506011500 | 28 | 167 | 3.2 | 9.7 | 0.00 | 0.03 | 0.00 | 44 | 1005.0 |
| 20260506011000 | 28 | 166 | 1.6 | 11.3 | 0.00 | 0.03 | 0.00 | 45 | 1004.9 |
| 20260506010501 | 28 | 179 | 1.6 | 11.3 | 0.00 | 0.03 | 0.00 | 45 | 1004.8 |
| 20260506010000 | 28 | 165 | 1.6 | 11.3 | 0.00 | 0.03 | 0.00 | 45 | 1004.7 |